Starlink 4731

operational
NORAD ID: 53703 Int'l Des: 2022-107 Owner: SPXS Country: US Constellation: starlink
LEOCIRCULAR

About Starlink 4731

Description loading...

Live Position

Loading 3D Globe...

Upcoming Passes

Altitude History

Altitude vs Time

uPlot chart will show altitude changes over time

Two-Line Element Set

1 53703U 22107D 26035.27952362 -.00000931 00000-0 -40418-4 0 9998
2 53703 53.2188 33.8494 0001347 104.9118 255.2023 15.08833618189816
Epoch: Feb 4, 2026 • Age: 11 hours

Current Status

Altitude 557.7 km
Velocity 7.58 km/s
Sub-Earth Point -49.39°S, 66.03°W
Launch Date Sep 5, 2022
Age 3.4 years
Type internet

Technical Details

Classification Payload
Mass 305.00 kg
Dry Mass 290.00 kg
Total Mass 305.00 kg
Length 0.20 m
Diameter 2.80 m
Span 9.00 m
Shape Box + pan
Manufacturer SPXS
Bus Type Starlink
Phase Status In Orbit
Owner/State SPXS/US

Large Constellations

Loading constellations...